Lakehurst, NJ

3:41 PM EDT on July 28, 2016 (GMT -0400)
Lakehurst Naes

Weather History for KNEL - December, 2012

Change the Weather History Date:

Tuesday, December 25, 2012

  Actual Average Record
Temperature  
Mean Temperature 38 °F -  
Max Temperature 28 °F 39 °F 28 °F (2012)
Min Temperature 33 °F 29 °F 19 °F (2013)
Degree Days  
Heating Degree Days 26    
Moisture  
Dew Point 33 °F    
Average Humidity 82    
Maximum Humidity 100    
Minimum Humidity 66    
Precipitation  
Precipitation 0.00 in - - ()
Sea Level Pressure  
Sea Level Pressure 30.06 in    
Wind  
Wind Speed 6 mph (NW)    
Max Wind Speed 15 mph    
Max Gust Speed 18 mph    
Averages and records for this station are not official NWS values.
T = Trace of Precipitation, MM = Missing Value Source: NWS Daily Summary

Daily Weather History Graph

Daily Weather History Graph

Search for Another Location

Airport or City:

Trip Planner

Search our weather history database for the weather conditions in past years. The results will help you decide how hot, cold, wet, or windy it might be!

Date:

Astronomy

Dec. 25, 2012 Rise Set
Actual Time 7:17 AM EST 4:37 PM EST
Civil Twilight 6:47 AM EST 5:08 PM EST
Nautical Twilight 6:13 AM EST 5:42 PM EST
Astronomical Twilight 5:40 AM EST 6:15 PM EST
Moon 2:44 PM EST (12/25) 4:47 AM EST (12/25)
Length of Visible Light 10h 21m
Length of Day
9h 20m
Waxing Gibbous, 93% of the Moon is Illuminated
Dec 25
Waxing Gibbous
Dec 28
Full
Jan 4
Last Quarter
Jan 11
New
Jan 18
First Quarter

Hourly Weather History & Observations

Time (EST) Temp. Windchill Dew Point Humidity Pressure Visibility Wind Dir Wind Speed Gust Speed Precip Events Conditions
12:00 AM 37.0 °F 33.3 °F 37.0 °F 100% 29.90 in - North 4.6 mph - N/A Rain Light Rain
1:00 AM 37.0 °F 34.5 °F 37.0 °F 100% 29.87 in - ENE 3.5 mph - N/A   Overcast
2:00 AM 39.0 °F - 37.9 °F 96% 29.88 in - Calm Calm - N/A   Overcast
3:00 AM 39.0 °F 36.8 °F 37.9 °F 96% 29.89 in - Variable 3.5 mph - N/A   Overcast
4:00 AM 37.9 °F - 37.9 °F 100% 29.89 in - Calm Calm - N/A   Overcast
5:22 AM - - - N/A% - - North - - N/A   Unknown
6:00 AM 37.0 °F 32.4 °F 36.0 °F 96% 29.94 in - WNW 5.8 mph - N/A   Overcast
7:00 AM 36.0 °F 30.3 °F 36.0 °F 100% 29.97 in - NW 6.9 mph - N/A   Overcast
8:00 AM 35.6 °F 30.7 °F 35.6 °F 100% 30.00 in - NW 5.8 mph - N/A   Overcast
8:06 AM 36.0 °F 29.6 °F 35.1 °F 97% 30.00 in - NW 8.1 mph - N/A   Overcast
9:00 AM 36.0 °F 31.1 °F 34.0 °F 93% 30.04 in - NW 5.8 mph - N/A   Overcast
9:32 AM 37.4 °F 32.1 °F 35.6 °F 93% 30.05 in - WNW 6.9 mph - N/A   Scattered Clouds
10:00 AM 39.2 °F 34.2 °F 35.6 °F 87% 30.06 in - Variable 6.9 mph - N/A   Mostly Cloudy
10:06 AM 39.0 °F 33.4 °F 35.1 °F 86% 30.06 in - NW 8.1 mph - N/A   Mostly Cloudy
10:13 AM 39.2 °F 33.0 °F 35.6 °F 87% 30.06 in - WNW 9.2 mph - N/A   Scattered Clouds
10:33 AM 39.2 °F 32.0 °F 35.6 °F 87% 30.07 in - NW 11.5 mph 18.4 mph N/A   Mostly Cloudy
10:48 AM 41.0 °F 34.3 °F 33.8 °F 76% 30.07 in - NW 11.5 mph 17.3 mph N/A   Mostly Cloudy
11:00 AM 41.0 °F 34.3 °F 34.0 °F 76% 30.06 in - NW 11.5 mph 17.3 mph N/A   Mostly Cloudy
11:42 AM 41.0 °F 35.2 °F 33.8 °F 76% 30.05 in - NW 9.2 mph - N/A   Scattered Clouds
12:00 PM 42.1 °F 36.6 °F 33.1 °F 70% 30.04 in - NW 9.2 mph - N/A   Partly Cloudy
1:00 PM 42.1 °F 36.1 °F 32.0 °F 67% 30.08 in - NW 10.4 mph 18.4 mph N/A   Scattered Clouds
1:08 PM 42.8 °F 35.4 °F 32.0 °F 66% 30.08 in - WNW 15.0 mph 18.4 mph N/A   Mostly Cloudy
2:00 PM 41.0 °F 35.2 °F 32.0 °F 70% 30.08 in - NW 9.2 mph - N/A   Overcast
3:00 PM 41.0 °F 35.8 °F 30.9 °F 67% 30.09 in - NNW 8.1 mph 16.1 mph N/A   Overcast
4:00 PM 39.9 °F 37.8 °F 30.9 °F 70% 30.12 in - NW 3.5 mph - N/A   Overcast
5:00 PM 39.9 °F 35.1 °F 30.0 °F 68% 30.13 in - North 6.9 mph - N/A   Overcast
6:00 PM 37.9 °F 34.4 °F 28.0 °F 68% 30.17 in - North 4.6 mph - N/A   Overcast
6:07 PM - - - N/A% - - North - - N/A   Unknown
7:00 PM 37.9 °F 33.5 °F 28.0 °F 68% 30.19 in - Variable 5.8 mph - N/A   Overcast
8:00 PM 37.0 °F - 28.0 °F 70% 30.20 in - Calm Calm - N/A   Overcast
9:00 PM 37.0 °F 34.5 °F 27.0 °F 67% 30.22 in - North 3.5 mph - N/A   Overcast
10:00 PM 36.0 °F 32.1 °F 26.1 °F 67% 30.23 in - North 4.6 mph - N/A   Overcast
10:28 PM 35.6 °F - 26.6 °F 70% 30.24 in - Calm Calm - N/A   Mostly Cloudy
11:00 PM 33.1 °F - 26.1 °F 75% 30.24 in - Calm Calm - N/A   Scattered Clouds